ExpreSS Skopelitis — SW3130 — position and weather

sailwx.info

Track history (hours):
 
Tides and Currents Weather Stations Pressure Air Temp Water Temp Dewpoint Dewpoint Depression Visibility Wind Speed Wind Dir Waves Ship Positions

ExpreSS Skopelitis

Last reported at 2014-Sep-03 04:33 UTC. Time now 2014-Sep-03 04:59 UTC.
Position N 36°59' E 025°53'.

Length 45 m; draft 2.4 m.

Type: Passenger vessel. MMSI: 237029400.

Date/timePositionNaut miles runAvg speedWind from/ knotsBaromVisibWave heightAir tempDewpointWater temp
2014-Sep-03 04:33N 36°59' E 025°53'7 7.0
2014-Sep-03 03:33N 36°53' E 025°54'3 0.8
2014-Sep-02 23:14N 36°50' E 025°52'5 0.6
2014-Sep-02 14:33N 36°52' E 025°46'1010.0
2014-Sep-02 13:33N 36°55' E 025°34'5 5.5
2014-Sep-02 12:33N 36°52' E 025°28'1111.5
2014-Sep-02 11:33N 37°02' E 025°21'5 4.8
2014-Sep-02 10:33N 37°06' E 025°22'0 0.0
2014-Sep-02 09:33N 37°06' E 025°22'0 0.0
2014-Sep-02 08:33N 37°06' E 025°22'3 2.6
2014-Sep-02 07:33N 37°05' E 025°20'1212.1
2014-Sep-02 06:33N 36°54' E 025°27'5 5.1
2014-Sep-02 05:33N 36°55' E 025°33'1010.0
2014-Sep-02 04:33N 36°52' E 025°45'6 5.7
2014-Sep-02 03:33N 36°50' E 025°52'0 0.0
2014-Sep-02 02:33N 36°50' E 025°52'0 0.0
2014-Sep-02 01:32N 36°50' E 025°52'0 0.0
2014-Sep-02 00:24N 36°50' E 025°52'0 0.0
2014-Sep-01 17:33N 36°50' E 025°52'6 5.6
2014-Sep-01 16:33N 36°53' E 025°57'9 9.3
2014-Sep-01 15:33N 37°01' E 025°51'5 5.3
2014-Sep-01 14:33N 37°02' E 025°44'10 9.7
2014-Sep-01 13:33N 36°55' E 025°35'7 6.6
2014-Sep-01 12:33N 36°52' E 025°28'1211.9
2014-Sep-01 11:34N 37°02' E 025°21'4 4.4
2014-Sep-01 10:33N 37°06' E 025°22'0 0.0
2014-Sep-01 09:33N 37°06' E 025°22'7 6.9
2014-Sep-01 08:33N 36°59' E 025°22'10 9.7
2014-Sep-01 07:33N 36°52' E 025°30'7 7.3
2014-Sep-01 06:33N 36°56' E 025°38'1212.1
2014-Sep-01 05:33N 37°06' E 025°47'9 9.2
2014-Sep-01 04:33N 36°59' E 025°54'6 6.5
2014-Sep-01 03:33N 36°52' E 025°54'3 0.2
2014-Aug-31 15:10N 36°50' E 025°52'711.2
2014-Aug-31 14:33N 36°53' E 025°44'9 9.4
2014-Aug-31 13:33N 36°54' E 025°33'3 0.4
2014-Aug-31 06:32N 36°55' E 025°36'9 9.7
2014-Aug-31 05:33N 36°52' E 025°47'3 0.2
2014-Aug-30 15:03N 36°50' E 025°51'612.0
2014-Aug-30 14:31N 36°53' E 025°44'8 8.5
2014-Aug-30 13:33N 36°55' E 025°34'8 5.3
2014-Aug-30 12:06N 36°57' E 025°24'712.0
2014-Aug-30 11:31N 37°03' E 025°20'4 3.8
2014-Aug-30 10:32N 37°06' E 025°22'0 0.0
2014-Aug-30 09:31N 37°06' E 025°22'7 6.9
2014-Aug-30 08:29N 36°59' E 025°22'9 6.5
2014-Aug-30 07:08N 36°53' E 025°30'5 8.6
2014-Aug-30 06:32N 36°56' E 025°36'9 9.0
2014-Aug-30 05:33N 36°52' E 025°46'5 0.6
2014-Aug-29 21:21N 36°50' E 025°52'5 0.7
2014-Aug-29 14:33N 36°52' E 025°46'10 9.7
2014-Aug-29 13:33N 36°55' E 025°35'6 5.6
2014-Aug-29 12:31N 36°53' E 025°28'1212.0
2014-Aug-29 11:33N 37°02' E 025°20'4 4.2
2014-Aug-29 10:33N 37°06' E 025°22'0 0.0
2014-Aug-29 09:33N 37°06' E 025°22'0 0.0
2014-Aug-29 08:33N 37°06' E 025°22'4 3.6
2014-Aug-29 07:33N 37°03' E 025°21'1211.7
2014-Aug-29 06:33N 36°53' E 025°28'6 5.9
2014-Aug-29 05:33N 36°55' E 025°35'9 9.3
2014-Aug-29 04:33N 36°52' E 025°46'6 2.8
2014-Aug-29 02:31N 36°50' E 025°52'0 0.0
2014-Aug-29 01:32N 36°50' E 025°52'0 0.0
2014-Aug-29 00:29N 36°50' E 025°52'0 0.0
2014-Aug-28 23:31N 36°50' E 025°52'5 0.6
2014-Aug-28 14:33N 36°52' E 025°46'9 9.3
2014-Aug-28 13:33N 36°56' E 025°35'7 6.9
2014-Aug-28 12:33N 36°52' E 025°28'1111.0
2014-Aug-28 11:33N 37°01' E 025°21'5 5.2
2014-Aug-28 10:34N 37°06' E 025°22'0 0.0
2014-Aug-28 09:33N 37°06' E 025°22'0 0.0
2014-Aug-28 08:33N 37°06' E 025°22'3 3.3
2014-Aug-28 07:33N 37°03' E 025°20'1211.7
2014-Aug-28 06:34N 36°53' E 025°28'5 5.3
2014-Aug-28 05:34N 36°55' E 025°34'9 9.4
2014-Aug-28 04:34N 36°52' E 025°45'6 1.4
2014-Aug-28 00:15N 36°50' E 025°52'0 0.0
2014-Aug-27 22:20N 36°50' E 025°52'0 0.0
2014-Aug-27 17:28N 36°50' E 025°52'7 7.6
2014-Aug-27 16:33N 36°54' E 025°59'1111.3
2014-Aug-27 15:33N 37°03' E 025°50'5 5.2
2014-Aug-27 14:33N 37°01' E 025°44'9 9.2
2014-Aug-27 13:33N 36°55' E 025°35'6 6.3
2014-Aug-27 12:33N 36°52' E 025°28'1211.0
2014-Aug-27 11:29N 37°02' E 025°21'5 4.9
2014-Aug-27 10:33N 37°06' E 025°22'0 0.0
2014-Aug-27 09:32N 37°06' E 025°22'7 7.2
2014-Aug-27 08:33N 36°59' E 025°22'9 7.1
2014-Aug-27 07:17N 36°53' E 025°30'6 8.6
2014-Aug-27 06:33N 36°56' E 025°37'1212.2
2014-Aug-27 05:33N 37°05' E 025°47'8 8.4
2014-Aug-27 04:33N 36°59' E 025°54'7 6.9
2014-Aug-27 03:33N 36°52' E 025°54'3 0.5
2014-Aug-26 21:08N 36°50' E 025°52'0 0.0
2014-Aug-26 17:30N 36°50' E 025°52'0 0.0
2014-Aug-26 16:33N 36°50' E 025°52'0 0.0
2014-Aug-26 15:33N 36°50' E 025°52'5 5.4
2014-Aug-26 14:33N 36°52' E 025°46'9 9.4
2014-Aug-26 13:33N 36°55' E 025°35'6 6.2
2014-Aug-26 12:33N 36°52' E 025°28'1111.2
2014-Aug-26 11:33N 37°01' E 025°21'5 5.1
2014-Aug-26 10:33N 37°06' E 025°22'0 0.0
2014-Aug-26 09:34N 37°06' E 025°22'0 0.0
2014-Aug-26 08:33N 37°06' E 025°22'4 4.1
2014-Aug-26 07:34N 37°03' E 025°21'1211.8
2014-Aug-26 06:33N 36°52' E 025°29'6 6.0
2014-Aug-26 05:34N 36°55' E 025°35'10 9.7
2014-Aug-26 04:33N 36°52' E 025°46'5 3.4
2014-Aug-26 03:06N 36°50' E 025°52'0 0.0
2014-Aug-26 02:29N 36°50' E 025°52'0 0.0
2014-Aug-26 00:24N 36°50' E 025°52'0 0.0
2014-Aug-25 23:32N 36°50' E 025°52'0 0.0
2014-Aug-25 22:33N 36°50' E 025°52'0 0.0
2014-Aug-25 21:33N 36°50' E 025°52'0 0.0
2014-Aug-25 20:33N 36°50' E 025°52'0 0.0
2014-Aug-25 19:31N 36°50' E 025°52'0 0.0
2014-Aug-25 18:33N 36°50' E 025°52'0 0.1
2014-Aug-25 17:22N 36°50' E 025°52'7 7.2
2014-Aug-25 16:24N 36°54' E 025°58'1112.4
2014-Aug-25 15:33N 37°02' E 025°50'5 4.9
2014-Aug-25 14:33N 37°01' E 025°44'9 9.2
2014-Aug-25 13:33N 36°55' E 025°35'7 6.7
2014-Aug-25 12:33N 36°52' E 025°28'1111.5
2014-Aug-25 11:33N 37°02' E 025°21'5 4.9
2014-Aug-25 10:34N 37°06' E 025°22'0 0.0
2014-Aug-25 09:33N 37°06' E 025°22'7 6.9
2014-Aug-25 08:33N 36°59' E 025°22'10 9.6
2014-Aug-25 07:34N 36°52' E 025°30'7 7.1
2014-Aug-25 06:33N 36°56' E 025°37'1312.7
2014-Aug-25 05:34N 37°06' E 025°47'8 8.4
2014-Aug-25 04:33N 36°59' E 025°54'7 6.2
2014-Aug-25 03:30N 36°52' E 025°54'3 0.3
2014-Aug-24 16:05N 36°50' E 025°52'0 0.0
2014-Aug-24 15:33N 36°50' E 025°52'4 4.2
2014-Aug-24 14:34N 36°51' E 025°47'1010.1
2014-Aug-24 13:33N 36°56' E 025°36'1212.2
2014-Aug-24 12:33N 36°50' E 025°22'8 8.1
2014-Aug-24 11:33N 36°43' E 025°16'9 9.3
2014-Aug-24 10:34N 36°35' E 025°19'1212.0
2014-Aug-24 09:33N 36°24' E 025°26'7 7.2
2014-Aug-24 08:33N 36°30' E 025°22'1312.5
2014-Aug-24 07:33N 36°42' E 025°28'1312.6
2014-Aug-24 06:33N 36°53' E 025°35'8 8.1
2014-Aug-24 05:34N 36°52' E 025°45'  
Track history (hours):
 
Tides and Currents Weather Stations Pressure Air Temp Water Temp Dewpoint Dewpoint Depression Visibility Wind Speed Wind Dir Waves Ship Positions

ExpreSS Skopelitis

Last reported at 2014-Sep-03 04:33 UTC. Time now 2014-Sep-03 04:59 UTC.
Position N 36°59' E 025°53'.

Length 45 m; draft 2.4 m.

Type: Passenger vessel. MMSI: 237029400.

Date/timePositionNaut miles runAvg speedWind from/ knotsBaromVisibWave heightAir tempDewpointWater temp
2014-Sep-03 04:33N 36°59' E 025°53'7 7.0
2014-Sep-03 03:33N 36°53' E 025°54'3 0.8
2014-Sep-02 23:14N 36°50' E 025°52'5 0.6
2014-Sep-02 14:33N 36°52' E 025°46'1010.0
2014-Sep-02 13:33N 36°55' E 025°34'5 5.5
2014-Sep-02 12:33N 36°52' E 025°28'1111.5
2014-Sep-02 11:33N 37°02' E 025°21'5 4.8
2014-Sep-02 10:33N 37°06' E 025°22'0 0.0
2014-Sep-02 09:33N 37°06' E 025°22'0 0.0
2014-Sep-02 08:33N 37°06' E 025°22'3 2.6
2014-Sep-02 07:33N 37°05' E 025°20'1212.1
2014-Sep-02 06:33N 36°54' E 025°27'5 5.1
2014-Sep-02 05:33N 36°55' E 025°33'1010.0
2014-Sep-02 04:33N 36°52' E 025°45'6 5.7
2014-Sep-02 03:33N 36°50' E 025°52'0 0.0
2014-Sep-02 02:33N 36°50' E 025°52'0 0.0
2014-Sep-02 01:32N 36°50' E 025°52'0 0.0
2014-Sep-02 00:24N 36°50' E 025°52'0 0.0
2014-Sep-01 17:33N 36°50' E 025°52'6 5.6
2014-Sep-01 16:33N 36°53' E 025°57'9 9.3
2014-Sep-01 15:33N 37°01' E 025°51'5 5.3
2014-Sep-01 14:33N 37°02' E 025°44'10 9.7
2014-Sep-01 13:33N 36°55' E 025°35'7 6.6
2014-Sep-01 12:33N 36°52' E 025°28'1211.9
2014-Sep-01 11:34N 37°02' E 025°21'4 4.4
2014-Sep-01 10:33N 37°06' E 025°22'0 0.0
2014-Sep-01 09:33N 37°06' E 025°22'7 6.9
2014-Sep-01 08:33N 36°59' E 025°22'10 9.7
2014-Sep-01 07:33N 36°52' E 025°30'7 7.3
2014-Sep-01 06:33N 36°56' E 025°38'1212.1
2014-Sep-01 05:33N 37°06' E 025°47'9 9.2
2014-Sep-01 04:33N 36°59' E 025°54'6 6.5
2014-Sep-01 03:33N 36°52' E 025°54'3 0.2
2014-Aug-31 15:10N 36°50' E 025°52'711.2
2014-Aug-31 14:33N 36°53' E 025°44'9 9.4
2014-Aug-31 13:33N 36°54' E 025°33'3 0.4
2014-Aug-31 06:32N 36°55' E 025°36'9 9.7
2014-Aug-31 05:33N 36°52' E 025°47'3 0.2
2014-Aug-30 15:03N 36°50' E 025°51'612.0
2014-Aug-30 14:31N 36°53' E 025°44'8 8.5
2014-Aug-30 13:33N 36°55' E 025°34'8 5.3
2014-Aug-30 12:06N 36°57' E 025°24'712.0
2014-Aug-30 11:31N 37°03' E 025°20'4 3.8
2014-Aug-30 10:32N 37°06' E 025°22'0 0.0
2014-Aug-30 09:31N 37°06' E 025°22'7 6.9
2014-Aug-30 08:29N 36°59' E 025°22'9 6.5
2014-Aug-30 07:08N 36°53' E 025°30'5 8.6
2014-Aug-30 06:32N 36°56' E 025°36'9 9.0
2014-Aug-30 05:33N 36°52' E 025°46'5 0.6
2014-Aug-29 21:21N 36°50' E 025°52'5 0.7
2014-Aug-29 14:33N 36°52' E 025°46'10 9.7
2014-Aug-29 13:33N 36°55' E 025°35'6 5.6
2014-Aug-29 12:31N 36°53' E 025°28'1212.0
2014-Aug-29 11:33N 37°02' E 025°20'4 4.2
2014-Aug-29 10:33N 37°06' E 025°22'0 0.0
2014-Aug-29 09:33N 37°06' E 025°22'0 0.0
2014-Aug-29 08:33N 37°06' E 025°22'4 3.6
2014-Aug-29 07:33N 37°03' E 025°21'1211.7
2014-Aug-29 06:33N 36°53' E 025°28'6 5.9
2014-Aug-29 05:33N 36°55' E 025°35'9 9.3
2014-Aug-29 04:33N 36°52' E 025°46'6 2.8
2014-Aug-29 02:31N 36°50' E 025°52'0 0.0
2014-Aug-29 01:32N 36°50' E 025°52'0 0.0
2014-Aug-29 00:29N 36°50' E 025°52'0 0.0
2014-Aug-28 23:31N 36°50' E 025°52'5 0.6
2014-Aug-28 14:33N 36°52' E 025°46'9 9.3
2014-Aug-28 13:33N 36°56' E 025°35'7 6.9
2014-Aug-28 12:33N 36°52' E 025°28'1111.0
2014-Aug-28 11:33N 37°01' E 025°21'5 5.2
2014-Aug-28 10:34N 37°06' E 025°22'0 0.0
2014-Aug-28 09:33N 37°06' E 025°22'0 0.0
2014-Aug-28 08:33N 37°06' E 025°22'3 3.3
2014-Aug-28 07:33N 37°03' E 025°20'1211.7
2014-Aug-28 06:34N 36°53' E 025°28'5 5.3
2014-Aug-28 05:34N 36°55' E 025°34'9 9.4
2014-Aug-28 04:34N 36°52' E 025°45'6 1.4
2014-Aug-28 00:15N 36°50' E 025°52'0 0.0
2014-Aug-27 22:20N 36°50' E 025°52'0 0.0
2014-Aug-27 17:28N 36°50' E 025°52'7 7.6
2014-Aug-27 16:33N 36°54' E 025°59'1111.3
2014-Aug-27 15:33N 37°03' E 025°50'5 5.2
2014-Aug-27 14:33N 37°01' E 025°44'9 9.2
2014-Aug-27 13:33N 36°55' E 025°35'6 6.3
2014-Aug-27 12:33N 36°52' E 025°28'1211.0
2014-Aug-27 11:29N 37°02' E 025°21'5 4.9
2014-Aug-27 10:33N 37°06' E 025°22'0 0.0
2014-Aug-27 09:32N 37°06' E 025°22'7 7.2
2014-Aug-27 08:33N 36°59' E 025°22'9 7.1
2014-Aug-27 07:17N 36°53' E 025°30'6 8.6
2014-Aug-27 06:33N 36°56' E 025°37'1212.2
2014-Aug-27 05:33N 37°05' E 025°47'8 8.4
2014-Aug-27 04:33N 36°59' E 025°54'7 6.9
2014-Aug-27 03:33N 36°52' E 025°54'3 0.5
2014-Aug-26 21:08N 36°50' E 025°52'0 0.0
2014-Aug-26 17:30N 36°50' E 025°52'0 0.0
2014-Aug-26 16:33N 36°50' E 025°52'0 0.0
2014-Aug-26 15:33N 36°50' E 025°52'5 5.4
2014-Aug-26 14:33N 36°52' E 025°46'9 9.4
2014-Aug-26 13:33N 36°55' E 025°35'6 6.2
2014-Aug-26 12:33N 36°52' E 025°28'1111.2
2014-Aug-26 11:33N 37°01' E 025°21'5 5.1
2014-Aug-26 10:33N 37°06' E 025°22'0 0.0
2014-Aug-26 09:34N 37°06' E 025°22'0 0.0
2014-Aug-26 08:33N 37°06' E 025°22'4 4.1
2014-Aug-26 07:34N 37°03' E 025°21'1211.8
2014-Aug-26 06:33N 36°52' E 025°29'6 6.0
2014-Aug-26 05:34N 36°55' E 025°35'10 9.7
2014-Aug-26 04:33N 36°52' E 025°46'5 3.4
2014-Aug-26 03:06N 36°50' E 025°52'0 0.0
2014-Aug-26 02:29N 36°50' E 025°52'0 0.0
2014-Aug-26 00:24N 36°50' E 025°52'0 0.0
2014-Aug-25 23:32N 36°50' E 025°52'0 0.0
2014-Aug-25 22:33N 36°50' E 025°52'0 0.0
2014-Aug-25 21:33N 36°50' E 025°52'0 0.0
2014-Aug-25 20:33N 36°50' E 025°52'0 0.0
2014-Aug-25 19:31N 36°50' E 025°52'0 0.0
2014-Aug-25 18:33N 36°50' E 025°52'0 0.1
2014-Aug-25 17:22N 36°50' E 025°52'7 7.2
2014-Aug-25 16:24N 36°54' E 025°58'1112.4
2014-Aug-25 15:33N 37°02' E 025°50'5 4.9
2014-Aug-25 14:33N 37°01' E 025°44'9 9.2
2014-Aug-25 13:33N 36°55' E 025°35'7 6.7
2014-Aug-25 12:33N 36°52' E 025°28'1111.5
2014-Aug-25 11:33N 37°02' E 025°21'5 4.9
2014-Aug-25 10:34N 37°06' E 025°22'0 0.0
2014-Aug-25 09:33N 37°06' E 025°22'7 6.9
2014-Aug-25 08:33N 36°59' E 025°22'10 9.6
2014-Aug-25 07:34N 36°52' E 025°30'7 7.1
2014-Aug-25 06:33N 36°56' E 025°37'1312.7
2014-Aug-25 05:34N 37°06' E 025°47'8 8.4
2014-Aug-25 04:33N 36°59' E 025°54'7 6.2
2014-Aug-25 03:30N 36°52' E 025°54'3 0.3
2014-Aug-24 16:05N 36°50' E 025°52'0 0.0
2014-Aug-24 15:33N 36°50' E 025°52'4 4.2
2014-Aug-24 14:34N 36°51' E 025°47'1010.1
2014-Aug-24 13:33N 36°56' E 025°36'1212.2
2014-Aug-24 12:33N 36°50' E 025°22'8 8.1
2014-Aug-24 11:33N 36°43' E 025°16'9 9.3
2014-Aug-24 10:34N 36°35' E 025°19'1212.0
2014-Aug-24 09:33N 36°24' E 025°26'7 7.2
2014-Aug-24 08:33N 36°30' E 025°22'1312.5
2014-Aug-24 07:33N 36°42' E 025°28'1312.6
2014-Aug-24 06:33N 36°53' E 025°35'8 8.1
2014-Aug-24 05:34N 36°52' E 025°45'  

Dump ship's entire track history